Hillsdale, MI

5:04 PM EST on November 14, 2019 (GMT -0500)
Hillsdale Municipal

Weather History for KJYM - September, 2019

Change the Weather History Date:

Friday, September 20, 2019

  Actual Average Record
Temperature  
Mean Temperature 70 °F -  
Max Temperature 84 °F 71 °F 87 °F (2018)
Min Temperature 57 °F 50 °F 29 °F (1956)
Cooling Degree Days 6    
Growing Degree Days 20 (Base 50)    
Moisture  
Dew Point 61 °F    
Average Humidity 77    
Maximum Humidity 97    
Minimum Humidity 43    
Precipitation  
Precipitation 0.00 in - - ()
Sea Level Pressure  
Sea Level Pressure 30.15 in    
Wind  
Wind Speed 2 mph ()    
Max Wind Speed 8 mph    
Max Gust Speed -    
Visibility 8.0 miles    
Events Fog    
Averages and records for this station are not official NWS values.
T = Trace of Precipitation, MM = Missing Value Source: Averaged Metar Reports

Daily Weather History Graph

Daily Weather History Graph

Search for Another Location

Airport or City:

Astronomy

Sep. 20, 2019 Rise Set
Actual Time 7:23 AM EDT 7:39 PM EDT
Civil Twilight 6:55 AM EDT 8:07 PM EDT
Nautical Twilight 6:22 AM EDT 8:39 PM EDT
Astronomical Twilight 5:49 AM EDT 9:13 PM EDT
Moon 11:22 PM EDT (9/20) 1:32 PM EDT (9/20)
Length of Visible Light 13h 11m
Length of Day
12h 16m
Waning Gibbous, 65% of the Moon is Illuminated
Sep 20
Waning Gibbous
Sep 21
Last Quarter
Sep 28
New
Oct 5
First Quarter
Oct 13
Full

Hourly Weather History & Observations

Time (EDT) Temp. Heat Index Dew Point Humidity Pressure Visibility Wind Dir Wind Speed Gust Speed Precip Events Conditions
12:17 AM 62.1 °F - 59.5 °F 91% 30.12 in 10.0 mi East 3.5 mph - N/A   Mostly Cloudy
12:35 AM 61.7 °F - 59.4 °F 92% 30.12 in 10.0 mi East 4.6 mph - N/A   Mostly Cloudy
12:55 AM 62.1 °F - 59.9 °F 93% 30.12 in 10.0 mi ESE 3.5 mph - N/A   Scattered Clouds
1:15 AM 61.2 °F - 58.6 °F 91% 30.12 in 10.0 mi ESE 3.5 mph - N/A   Scattered Clouds
1:20 AM 61.0 °F - 59.2 °F 94% 30.12 in 10.0 mi ESE 3.5 mph - N/A   Scattered Clouds
1:38 AM 62.2 °F - 60.3 °F 93% 30.13 in 10.0 mi Calm Calm - N/A   Mostly Cloudy
1:56 AM 61.0 °F - 58.8 °F 93% 30.13 in 10.0 mi Calm Calm - N/A   Overcast
2:15 AM 59.9 °F - 58.6 °F 96% 30.13 in 7.0 mi Calm Calm - N/A   Mostly Cloudy
2:16 AM 59.9 °F - 58.6 °F 96% 30.13 in 7.0 mi Calm Calm - N/A   Mostly Cloudy
2:35 AM 59.5 °F - 58.6 °F 97% 30.13 in 7.0 mi ESE 4.6 mph - N/A   Mostly Cloudy
2:36 AM 59.7 °F - 58.8 °F 97% 30.13 in 7.0 mi ESE 5.8 mph - N/A   Mostly Cloudy
2:59 AM 61.9 °F - 60.4 °F 95% 30.13 in 10.0 mi SE 3.5 mph - N/A   Mostly Cloudy
3:17 AM 61.0 °F - 59.5 °F 95% 30.13 in 7.0 mi Calm Calm - N/A   Mostly Cloudy
3:35 AM 61.0 °F - 59.2 °F 94% 30.13 in 10.0 mi Calm Calm - N/A   Mostly Cloudy
3:55 AM 61.0 °F - 59.5 °F 95% 30.13 in 7.0 mi Calm Calm - N/A   Mostly Cloudy
3:56 AM 61.0 °F - 59.4 °F 94% 30.13 in 7.0 mi Calm Calm - N/A   Mostly Cloudy
4:15 AM 61.0 °F - 59.5 °F 95% 30.13 in 7.0 mi Calm Calm - N/A   Mostly Cloudy
4:20 AM 61.2 °F - 59.7 °F 95% 30.13 in 7.0 mi Calm Calm - N/A   Mostly Cloudy
4:38 AM 60.4 °F - 58.8 °F 94% 30.14 in 5.0 mi Calm Calm - N/A   Mostly Cloudy
4:56 AM 59.7 °F - 58.8 °F 97% 30.14 in 3.0 mi Calm Calm - N/A   Mostly Cloudy
5:15 AM 59.9 °F - 58.8 °F 96% 30.14 in 4.0 mi SSE 3.5 mph - N/A   Mostly Cloudy
5:16 AM 60.1 °F - 59.0 °F 96% 30.14 in 4.0 mi SSE 3.5 mph - N/A   Mostly Cloudy
5:35 AM 59.9 °F - 58.8 °F 96% 30.14 in 4.0 mi Calm Calm - N/A   Mostly Cloudy
5:36 AM 59.9 °F - 58.8 °F 96% 30.14 in 4.0 mi Calm Calm - N/A   Mostly Cloudy
5:59 AM 58.5 °F - 57.6 °F 97% 30.14 in 0.2 mi Calm Calm - N/A Fog Fog
6:17 AM 59.9 °F - 59.0 °F 97% 30.14 in 0.5 mi Calm Calm - N/A Fog Fog
6:35 AM 58.6 °F - 57.7 °F 97% 30.15 in 0.2 mi Calm Calm - N/A Fog Fog
6:55 AM 58.6 °F - 57.7 °F 97% 30.15 in 0.2 mi Calm Calm - N/A Fog Fog
6:56 AM 58.6 °F - 57.7 °F 97% 30.15 in 0.2 mi Calm Calm - N/A Fog Fog
7:15 AM 57.4 °F - 56.7 °F 97% 30.16 in 0.8 mi Calm Calm - N/A   Overcast
7:38 AM 58.1 °F - 57.4 °F 97% 30.16 in 0.2 mi Calm Calm - N/A Fog Fog
7:56 AM 57.2 °F - 56.5 °F 97% 30.16 in 0.2 mi Calm Calm - N/A Fog Fog
8:15 AM 58.6 °F - 57.7 °F 97% 30.16 in 0.2 mi Calm Calm - N/A Fog Fog
8:16 AM 58.6 °F - 57.9 °F 97% 30.16 in 0.2 mi Calm Calm - N/A Fog Fog
8:35 AM 62.6 °F - 61.7 °F 97% 30.16 in 2.5 mi Calm Calm - N/A   Mostly Cloudy
8:36 AM 62.6 °F - 61.9 °F 97% 30.16 in 2.5 mi Calm Calm - N/A   Mostly Cloudy
8:59 AM 65.3 °F - 64.2 °F 96% 30.17 in 4.0 mi Calm Calm - N/A   Scattered Clouds
9:17 AM 67.1 °F - 64.9 °F 93% 30.17 in 7.0 mi Calm Calm - N/A   Scattered Clouds
9:35 AM 69.6 °F - 66.0 °F 88% 30.17 in 10.0 mi Calm Calm - N/A   Scattered Clouds
9:36 AM 69.8 °F - 66.0 °F 88% 30.17 in 10.0 mi Calm Calm - N/A   Scattered Clouds
9:55 AM 72.7 °F - 66.2 °F 80% 30.17 in 10.0 mi Calm Calm - N/A   Clear
9:56 AM 72.9 °F - 66.2 °F 80% 30.17 in 10.0 mi Calm Calm - N/A   Clear
10:15 AM 75.6 °F - 65.7 °F 71% 30.17 in 10.0 mi Calm Calm - N/A   Clear
10:38 AM 77.0 °F - 65.1 °F 67% 30.17 in 10.0 mi Calm Calm - N/A   Clear
10:56 AM 79.2 °F - 64.0 °F 60% 30.17 in 10.0 mi West 3.5 mph - N/A   Clear
11:15 AM 79.5 °F - 61.7 °F 54% 30.18 in 10.0 mi Calm Calm - N/A   Clear
11:16 AM 79.7 °F - 61.3 °F 53% 30.18 in 10.0 mi NW 3.5 mph - N/A   Clear
11:35 AM 79.9 °F - 61.9 °F 54% 30.18 in 10.0 mi NNW 3.5 mph - N/A   Clear
11:36 AM 79.7 °F - 61.9 °F 54% 30.18 in 10.0 mi Calm Calm - N/A   Clear
11:41 AM 79.2 °F - 61.7 °F 55% 30.18 in 10.0 mi Calm Calm - N/A   Clear
12:24 PM 80.6 °F 81.5 °F 60.8 °F 51% 30.17 in 10.0 mi Calm Calm - N/A   Clear
12:37 PM 81.5 °F 81.8 °F 59.7 °F 47% 30.17 in 10.0 mi West 3.5 mph - N/A   Clear
1:04 PM 82.4 °F 82.5 °F 59.0 °F 45% 30.16 in 10.0 mi WSW 4.6 mph - N/A   Clear
1:24 PM 82.4 °F 82.5 °F 59.0 °F 45% 30.16 in 10.0 mi Calm Calm - N/A   Clear
1:44 PM 82.4 °F 82.5 °F 59.0 °F 45% 30.15 in 10.0 mi Calm Calm - N/A   Clear
2:04 PM 82.4 °F 82.5 °F 59.0 °F 45% 30.15 in 10.0 mi SSW 3.5 mph - N/A   Clear
2:21 PM 82.2 °F 82.1 °F 58.1 °F 44% 30.14 in 10.0 mi Calm Calm - N/A   Clear
2:39 PM 82.9 °F 82.8 °F 59.2 °F 44% 30.14 in 10.0 mi SSW 6.9 mph - N/A   Clear
2:57 PM 84.2 °F 84.2 °F 59.9 °F 44% 30.13 in 10.0 mi SW 3.5 mph - N/A   Clear
3:15 PM 83.8 °F 83.6 °F 59.4 °F 43% 30.13 in 10.0 mi Calm Calm - N/A   Clear
3:38 PM 84.4 °F 84.6 °F 60.8 °F 45% 30.14 in 10.0 mi SSW 5.8 mph - N/A   Clear
3:56 PM 82.0 °F 82.5 °F 60.4 °F 48% 30.13 in 10.0 mi Calm Calm - N/A   Scattered Clouds
4:15 PM 83.8 °F 84.1 °F 61.2 °F 46% 30.13 in 10.0 mi SSW 5.8 mph - N/A   Mostly Cloudy
4:35 PM 83.5 °F 83.4 °F 59.7 °F 44% 30.13 in 10.0 mi SSW 3.5 mph - N/A   Mostly Cloudy
4:36 PM 83.5 °F 83.4 °F 59.7 °F 44% 30.13 in 10.0 mi South 4.6 mph - N/A   Mostly Cloudy
4:59 PM 83.7 °F 83.6 °F 59.7 °F 44% 30.13 in 10.0 mi SSW 8.1 mph - N/A   Scattered Clouds
5:17 PM 82.2 °F 82.7 °F 60.4 °F 48% 30.13 in 10.0 mi South 4.6 mph - N/A   Scattered Clouds
5:35 PM 83.1 °F 83.3 °F 60.3 °F 46% 30.13 in 10.0 mi South 3.5 mph - N/A   Clear
5:55 PM 82.6 °F 82.9 °F 60.6 °F 47% 30.14 in 10.0 mi South 3.5 mph - N/A   Scattered Clouds
5:56 PM 82.6 °F 82.9 °F 60.6 °F 47% 30.14 in 10.0 mi SSW 3.5 mph - N/A   Scattered Clouds
6:15 PM 81.3 °F 81.7 °F 59.5 °F 47% 30.14 in 10.0 mi SSW 4.6 mph - N/A   Mostly Cloudy
6:38 PM 79.3 °F - 62.1 °F 55% 30.14 in 10.0 mi South 4.6 mph - N/A   Scattered Clouds
6:56 PM 78.1 °F - 62.6 °F 59% 30.14 in 10.0 mi Calm Calm - N/A   Clear
7:15 PM 77.0 °F - 62.6 °F 61% 30.14 in 10.0 mi Calm Calm - N/A   Clear
7:16 PM 76.8 °F - 62.6 °F 61% 30.14 in 10.0 mi Calm Calm - N/A   Clear
7:35 PM 72.7 °F - 64.0 °F 74% 30.14 in 10.0 mi Calm Calm - N/A   Clear
7:59 PM 70.0 °F - 64.4 °F 82% 30.14 in 10.0 mi Calm Calm - N/A   Clear
8:17 PM 69.3 °F - 63.7 °F 82% 30.15 in 10.0 mi Calm Calm - N/A   Clear
8:35 PM 68.5 °F - 63.9 °F 85% 30.15 in 10.0 mi Calm Calm - N/A   Clear
8:36 PM 68.7 °F - 63.9 °F 84% 30.15 in 10.0 mi Calm Calm - N/A   Clear
8:55 PM 66.7 °F - 63.0 °F 88% 30.16 in 10.0 mi Calm Calm - N/A   Clear
9:15 PM 67.5 °F - 63.3 °F 87% 30.16 in 10.0 mi Calm Calm - N/A   Clear
9:38 PM 66.4 °F - 63.0 °F 89% 30.16 in 10.0 mi Calm Calm - N/A   Clear
9:55 PM 65.8 °F - 63.0 °F 90% 30.16 in 10.0 mi Calm Calm - N/A   Scattered Clouds
10:15 PM 65.3 °F - 62.4 °F 90% 30.17 in 10.0 mi Calm Calm - N/A   Clear
10:16 PM 65.5 °F - 62.6 °F 90% 30.17 in 10.0 mi Calm Calm - N/A   Clear
10:35 PM 65.5 °F - 62.4 °F 90% 30.16 in 10.0 mi Calm Calm - N/A   Clear
10:59 PM 64.0 °F - 61.3 °F 91% 30.17 in 10.0 mi Calm Calm - N/A   Clear
11:17 PM 63.9 °F - 61.5 °F 92% 30.17 in 10.0 mi Calm Calm - N/A   Clear
11:36 PM 64.6 °F - 62.2 °F 92% 30.17 in 10.0 mi Calm Calm - N/A   Clear
11:55 PM 63.5 °F - 61.3 °F 93% 30.17 in 10.0 mi Calm Calm - N/A   Clear